Weather History for Clarksburg, WV

Change the Weather History Date:

Thursday, November 28, 2013

  Actual Average Record
Temperature  
Mean Temperature 26 °F -  
Max Temperature 28 °F 53 °F 77 °F (1990)
Min Temperature 23 °F 34 °F 9 °F (1930)
Degree Days  
Heating Degree Days 40    
Moisture  
Dew Point 17 °F    
Average Humidity 70    
Maximum Humidity 85    
Minimum Humidity 60    
Precipitation  
Precipitation 0.00 in - - ()
Sea Level Pressure  
Sea Level Pressure 30.37 in    
Wind  
Wind Speed 7 mph (SW)    
Max Wind Speed 13 mph    
Max Gust Speed -    
Visibility 10 miles    
Events      
Averages and records for this station are not official NWS values.
T = Trace of Precipitation, MM = Missing Value Source: NWS Daily Summary

Daily Weather History Graph

Daily Weather History Graph

Search for Another Location

Airport:

Trip Planner

Search our weather history database for the weather conditions in past years. The results will help you decide how hot, cold, wet, or windy it might be!

Date:

Astronomy

Nov. 28, 2013 Rise Set
Actual Time 7:18 AM EST 4:58 PM EST
Civil Twilight 6:49 AM EST 5:28 PM EST
Nautical Twilight 6:16 AM EST 6:01 PM EST
Astronomical Twilight 5:43 AM EST 6:33 PM EST
Moon 2:21 AM EST (11/28) 2:06 PM EST (11/28)
Length of Visible Light 10h 39m
Length of Day
9h 40m
Waning Crescent, 22% of the Moon is Illuminated
Nov 28
Waning Crescent
Dec 2
New
Dec 9
First Quarter
Dec 17
Full
Dec 25
Last Quarter

Hourly Weather History & Observations

Time (EST) Temp. Windchill Dew Point Humidity Pressure Visibility Wind Dir Wind Speed Gust Speed Precip Events Conditions
12:53 AM 24.1 °F 13.7 °F 12.9 °F 62% 30.22 in 10.0 mi West 10.4 mph - N/A   Overcast
1:53 AM 24.1 °F 16.0 °F 12.0 °F 60% 30.25 in 10.0 mi West 6.9 mph - N/A   Overcast
2:53 AM 24.1 °F 17.0 °F 12.0 °F 60% 30.27 in 10.0 mi West 5.8 mph - N/A   Overcast
3:53 AM 23.0 °F 17.0 °F 12.9 °F 65% 30.29 in 10.0 mi WSW 4.6 mph - N/A   Overcast
4:53 AM 23.0 °F 14.7 °F 17.1 °F 78% 30.30 in 10.0 mi WSW 6.9 mph - N/A   Overcast
5:53 AM 23.0 °F 15.8 °F 19.0 °F 85% 30.32 in 9.0 mi WSW 5.8 mph - 0.00 in   Overcast
6:53 AM 24.1 °F 14.4 °F 18.0 °F 77% 30.36 in 8.0 mi WSW 9.2 mph - N/A   Overcast
7:53 AM 23.0 °F 13.9 °F 17.1 °F 78% 30.38 in 10.0 mi WSW 8.1 mph - 0.00 in   Overcast
8:51 AM 24.8 °F 16.9 °F 17.6 °F 74% 30.38 in 10.0 mi WSW 6.9 mph - N/A   Overcast
8:53 AM 24.1 °F 15.2 °F 17.1 °F 75% 30.41 in 10.0 mi SW 8.1 mph - N/A   Overcast
9:30 AM 24.8 °F 16.1 °F 17.6 °F 74% 30.39 in 10.0 mi WSW 8.1 mph - N/A   Overcast
9:53 AM 25.0 °F 16.3 °F 17.1 °F 72% 30.42 in 10.0 mi WSW 8.1 mph - N/A   Mostly Cloudy
10:53 AM 26.1 °F 19.4 °F 18.0 °F 71% 30.43 in 10.0 mi SW 5.8 mph - N/A   Overcast
11:20 AM 26.6 °F 18.2 °F 17.6 °F 69% 30.40 in 10.0 mi SW 8.1 mph - N/A   Mostly Cloudy
11:53 AM 26.1 °F 20.5 °F 16.0 °F 66% 30.41 in 10.0 mi West 4.6 mph - N/A   Mostly Cloudy
12:53 PM 28.0 °F 20.0 °F 17.1 °F 63% 30.39 in 10.0 mi SW 8.1 mph - N/A   Mostly Cloudy
1:53 PM 28.9 °F 18.6 °F 19.0 °F 67% 30.38 in 10.0 mi SW 12.7 mph - N/A   Overcast
2:16 PM 28.4 °F 19.7 °F 17.6 °F 64% 30.34 in 10.0 mi SW 9.2 mph - N/A   Overcast
2:53 PM 28.0 °F 20.0 °F 18.0 °F 66% 30.36 in 10.0 mi South 8.1 mph - N/A   Overcast
3:53 PM 28.0 °F 20.0 °F 18.0 °F 66% 30.37 in 10.0 mi South 8.1 mph - N/A   Overcast
4:53 PM 27.0 °F 19.5 °F 18.0 °F 69% 30.36 in 10.0 mi SSW 6.9 mph - N/A   Overcast
5:53 PM 27.0 °F - 18.0 °F 69% 30.36 in 10.0 mi Calm Calm - N/A   Overcast
6:53 PM 27.0 °F - 19.9 °F 75% 30.38 in 10.0 mi Calm Calm - N/A   Overcast
7:53 PM 28.0 °F 24.2 °F 19.0 °F 69% 30.40 in 10.0 mi East 3.5 mph - N/A   Overcast
8:53 PM 28.0 °F - 19.9 °F 72% 30.42 in 10.0 mi Calm Calm - N/A   Overcast
9:53 PM 28.0 °F - 19.9 °F 72% 30.43 in 10.0 mi Calm Calm - N/A   Overcast
10:53 PM 28.0 °F 24.2 °F 21.0 °F 75% 30.45 in 10.0 mi South 3.5 mph - N/A   Overcast
11:53 PM 28.0 °F - 21.0 °F 75% 30.45 in 10.0 mi Calm Calm - N/A   Overcast